Tracking 30685 objects as of 17-Jun-2025
HD Live streaming from Space Station
objects crossing your sky now

THORAD AGENA D DEB

Track THORAD AGENA D DEB now!
10-day predictions


NORAD ID: 4745
Int'l Code: 1970-025CU
Perigee: 891.7 km
Apogee: 927.7 km
Inclination: 100.1 °
Period: 103.0 minutes
Semi major axis: 7280 km
RCS: 0.0158 m2 (small)
Launch date: April 8, 1970
Source: United States (US)
Launch site: AIR FORCE WESTERN TEST RANGE (AFWTR)

Note: This is SATELLITE DEBRIS
Your satellite tracking list
Your tracking list is empty




NASA's NSSDC Master Catalog

Two Line Element Set (TLE):
1  4745U 70025CU  25168.37220317  .00001093  00000-0  81271-3 0  9996
2  4745 100.0760 107.4660 0024718 248.6421 111.2100 13.97462113770758
Source of the keplerian elements: AFSPC